Regional Weather Roundup
Issued by NWS Upton, NY

Current Version | Previous Version | Graphics & Text | Print | Product List | Glossary Off
Versions: 1 2 3 4 5 6 7 8 9 10 11 12 13 14 15 16 17 18 19 20 21 22 23 24 25 26 27

000
ASUS41 KOKX 222105
RWROKX

Regional Weather Roundup
National Weather Service New York NY
500 PM EDT SUN APR 22 2018

Note: "FAIR" indicates few or no clouds below 12,000 feet with no
significant weather and/or obstructions to visibility.

NYZ071-072-176-178-NJZ106-104-222200-
New York City Metro Area

CITY           SKY/WX    TMP DP  RH WIND       PRES   REMARKS
Central Park   FAIR      60  21  22 S9G20     30.35S
Bronx Bot Gard   N/A     61  25  25 S13       30.34R
Bronx Lehman C   N/A     61  23  23 SE8         N/A
LaGuardia Arpt FAIR      61  20  20 S15       30.32S
Queens College   N/A     55  25  30 S14         N/A
Kennedy Intl   FAIR      54  28  36 S21       30.35F
Breezy Point     N/A     50 N/A N/A S14         N/A
Brooklyn Coll    N/A     54  30  40 SE12        N/A
Staten Island    N/A     59  25  27 SE14        N/A
Newark/Liberty FAIR      63  34  33 SE15      30.31F
Teterboro      FAIR      67  18  15 VRB5      30.30F
$$

NYZ177-179-078>081-222200-
Long Island New York

CITY           SKY/WX    TMP DP  RH WIND       PRES   REMARKS
Jones Beach      N/A     52 N/A N/A S12G18      N/A
Wantagh          N/A     55  32  41 S10         N/A
Hempstead        N/A     57  28  33 S8        30.36S
Matinecock Pt    N/A     64 N/A N/A N1          N/A
Farmingdale    FAIR      56  30  37 S13       30.35S
MacArthur/ISP  FAIR      56  27  32 S15       30.34S
Stony Brook      N/A     61  10  13 W3          N/A
Shirley        FAIR      57  28  33 S9        30.34F
Mt Sinai Harb    N/A    N/A N/A N/A SW3         N/A
Westhampton    FAIR      55  21  26 SW13      30.36S
East Hampton   FAIR      53  24  32 SW12      30.34S
Southold         N/A     57  28  33 SW15        N/A
Montauk          N/A     55  31  39 SW9G17    30.34S
$$

NYZ052-065-067-222200-
Hudson Valley

CITY           SKY/WX    TMP DP  RH WIND       PRES   REMARKS
White Plains   FAIR      63  14  15 NW3       30.31S
Larchmont Harb   N/A     55 N/A N/A SE3         N/A
Croton On Huds   N/A     63 N/A N/A SE3         N/A
Somers           N/A     63  18  17 N6          N/A
Brewster         N/A     61  16  17 N10         N/A
Newburgh       SUNNY     64  21  19 VRB7      30.32S
Montgomery     FAIR      65  19  17 N12       30.29S
Otisville        N/A     63  19  19 N7          N/A
Warwick          N/A     63  21  20 NW8         N/A
Suffern          N/A     63  16  16 N10         N/A
Poughkeepsie   FAIR      64  16  15 N6        30.30F
Albany         FAIR      64   8  11 N8        30.31F
$$

NJZ001-105-106-008-010-013-015-019>022-104-222200-
New Jersey

CITY           SKY/WX    TMP DP  RH WIND       PRES   REMARKS
Newark/Liberty FAIR      63  34  33 SE15      30.31F
Teterboro      FAIR      67  18  15 VRB5      30.30F
Caldwell       FAIR      66  12  12 W12G18    30.31F
Somerville     FAIR      66  17  15 VRB3      30.29F
Linden         FAIR      65  22  20 CALM      30.32S
Perth Amboy      N/A     59 N/A N/A SE16        N/A
Sussex         FAIR      66  17  15 VRB5      30.32S
Andover          N/A     65  14  14 VRB5      30.31S
Trenton        FAIR      64  22  20 SW7       30.33S
Millville      FAIR      61  25  25 SW7       30.35F
Atlantic City  FAIR      59  28  30 SE14      30.37S
Wrightstown    FAIR      65  20  18 NW7       30.31F
Toms River     FAIR      60  26  27 S14       30.36S
Belmar         FAIR      56  24  29 SE13      30.37S
$$

PAZ047>061-062-071-222200-
Eastern Pennsylvania

CITY           SKY/WX    TMP DP  RH WIND       PRES   REMARKS
Philadelphia   FAIR      65  22  19 SW10      30.34F
Allentown      FAIR      67  16  14 VRB3      30.32S
Scranton       FAIR      64  19  17 N7        30.32S
$$

CTZ002-004>006-009-010-012-RIZ004-006-007-MAZ004-011-015-222200-
Southern New England

 In CT

CITY           SKY/WX    TMP DP  RH WIND       PRES   REMARKS
Bradley Intl   FAIR      64  12  13 N13G22    30.30F
Hartford       FAIR      63  13  14 N12G18    30.30F
Danbury        FAIR      62  17  17 N12G20    30.32F
Wtrbury/Oxford FAIR      60  14  16 VRB7      30.32S
Norwalk Harbor   N/A     55 N/A N/A S12         N/A
Bridgeport     FAIR      60  20  21 S14       30.32S
Meriden        FAIR      63  13  14 N8        30.31S
New Haven      FAIR      57  25  29 SW8       30.32S
Chester          N/A     64   9  11 MISG      30.31S
Groton         FAIR      55  31  39 SW13G22   30.31S
Willimantic    FAIR      63  15  15 NW3       30.30S

 In RI

CITY           SKY/WX    TMP DP  RH WIND       PRES   REMARKS
Providence     FAIR      59  30  33 SE12      30.30S
Block Island   FAIR      52  31  44 SW21G28   30.33S
Westerly       FAIR      56  32  40 SW12      30.32S

In MA

CITY           SKY/WX    TMP DP  RH WIND       PRES   REMARKS
Boston         FAIR      53  27  36 SE14      30.30S
Worcester      FAIR      57  14  18 N10       30.29S
Westfield      FAIR      63   9  12 N16       30.30S
Provincetown   FAIR      54  17  23 CALM      30.33R
Nantucket      FAIR      50  30  46 SW10      30.34S
$$

ANZ330-335-338-340-345-350-353-355-222200-
Coastal Marine Observations


STATION/POSITION TIME  SKY/WX   TEMP    WIND        PRES    VSBY  WAVE
                                AIR SEA DIR/SP/G                  HT/PER
                 (UTC)          (F)     (DEG/KT/KT) (MB)    (MI)  (FT/S)
NY Harb Entrance 2050            48 46  190/ 14/ 16 1028.1          1/15
20 S Fire Island 2050            48 46  200/ 10/ 12 1028.3          1/13
23 SSW Montauk P 2050            46 44  220/ 10/ 12 1028.0          1/ 5
15 E Barnegat Li 2030               47                N/A           1/14
Hudson Canyon    2050            47 48  110/  2/  2 1028.6          1/16
Kings Point      2030            56 47  220/ 14/ 15 1027.8
Execution Rocks  NOT AVBL
Western LI Sound NOT AVBL
Central LI Sound 2030            50     230/  8/ 10   N/A           0
Robbins Reef     2036            53     150/ 17/ 18 1027.7
$$


>>>>>>>>>>>>>>>>>>>>>>>>>>>> KEY <<<<<<<<<<<<<<<<<<<<<<<<<<<
>                                                          <
>     SKY/WX - Sky Condition/Present Weather               <
>     TMP    - Temperature in Fahrenheit                   <
>     DP     - Dew Point in Fahrenheit                     <
>     RH     - Relative Humidity in Percent                <
>     WIND   - Direction (from) and Speed in MPH           <
>     PRES   - Mean Sea Level Pressure (inches of Hg)      <
>     WCI    - Wind Chill Index                            <
>     VSB    - Visibility in Miles                         <
>     HX     - Heat Index                                  <
>     TC     - Temperature in Celsius                      <
>     VRB    - Varibale Wind Direction                     <
>                                                          <
>>>>>>>>>>>>>>>>>>>>>>>>>>>> KEY <<<<<<<<<<<<<<<<<<<<<<<<<<<




USA.gov is the U.S. government's official web portal to all federal, state and local government web resources and services.